Other Public Products
Issued by NWS Grand Forks, ND

Home | Current Version | Previous Version | Graphics & Text | Print | Product List | Glossary On
Versions: 1 2 3 4 5 6 7 8 9 10 11 12 13 14 15 16 17 18 19 20 21 22 23 24 25 26 27 28 29 30 31 32 33 34 35 36 37 38 39 40 41 42 43 44 45 46 47 48 49 50
000
FPUS83 KFGF 270831
OPUFGF
PRAIRIE TO PINES WEATHER ROUNDUP
NATIONAL WEATHER SERVICE EASTERN NORTH DAKOTA/GRAND FORKS ND
200 AM CST TUE JAN 27 2015

 **SATELLITE DATA USED TO AUGMENT SKY COVER AT AUTOMATED STATIONS**
 *****  WEATHER ACROSS EASTERN NORTH DAKOTA  *****

CITY           SKY/WX    TMP DP  RH WIND       PRES   REMARKS
GRAND FORKS    FOG       25  24  96 S8        30.03S VSB 1/2 WCI  16
GRAND FORKS AF FOG       23  21  93 SE6       30.04R VSB 1   WCI  16
GRAND CITY NWS NOT AVBL
BUXTON           N/A     25  25  99 SE6         N/A  WCI  18
DEVILS LAKE    PTCLDY    19  18  93 S5        29.96S WCI  13
FARGO          CLOUDY    28  26  92 CALM      30.04F
WAHPETON ARPT  CLOUDY    28  27  93 CALM      30.06R
$$

 *****  WEATHER ACROSS CENTRAL AND WESTERN NORTH DAKOTA  *****

CITY           SKY/WX    TMP DP  RH WIND       PRES   REMARKS
JAMESTOWN      CLEAR     25  24  96 SE3       29.98F
BISMARCK       PTCLDY    30  28  92 SE3       29.94F
MINOT          PTCLDY    31  28  89 SE3       29.89F
MINOT AFB      PTCLDY    27  27 100 SE5       29.89S WCI  22
GARRISON         N/A     32  30  92 SE5       29.90F
WILLISTON      CLEAR     28  26  92 CALM      29.86S
DICKINSON      CLEAR     33  28  81 S6        29.86F
HETTINGER      CLEAR     26  24  92 CALM      29.91F
$$

 *****  OTHER OBSERVATIONS NORTHEAST NORTH DAKOTA  *****

CITY           SKY/WX    TMP DP  RH WIND       PRES   REMARKS
WALHALLA         N/A     19  19 100 SE3       30.01R
LANGDON        FOG       19  18  93 S8        29.96S VSB 3/4 WCI   9
CAVALIER       CLOUDY    18  18 100 S3        30.02S
GRAFTON        NOT AVBL
CANDO          FAIR      23  23 100 S8        29.96S WCI  14
FORT TOTTEN      N/A     26  26  98 SE7       29.95S WCI  18
ROLLA          PTSUNNY   28  28 100 S7        29.94S WCI  21
RUGBY          FAIR      19  19 100 SE10      29.93F WCI   8
 ***** THE ABOVE OBSERVATIONS ARE NON NWS ARE NOT QUALITY
        CONTROLLED AND MAY MIS-REPORT RAIN FOR SNOW...
$$

 *****  OTHER OBSERVATIONS SOUTHEAST NORTH DAKOTA *****

CITY           SKY/WX    TMP DP  RH WIND       PRES   REMARKS
COOPERSTOWN    NOT AVBL
VALLEY CITY    FAIR      25  25 100 S3        30.00F
OAKES            N/A     27  27 100 SE5       30.01S WCI  21
GWINNER        SUNNY     28  28 100 CALM      30.03F
SHEYENNE NWR     N/A     21  20  95 CALM      29.95S
BUFFALO        NOT AVBL
WYNDMERE         N/A     28  28 100 SE1         N/A
 ***** THE ABOVE OBSERVATIONS ARE NON NWS ARE NOT QUALITY
       CONTROLLED AND MAY MIS-REPORT RAIN FOR SNOW...
$$

  *****  WEATHER ACROSS NORTHERN MINNESOTA  *****

CITY           SKY/WX    TMP DP  RH WIND       PRES   REMARKS
FLAG ISLAND    CLOUDY    21  19  93 SW5       30.03R WCI  15
WARROAD        FOG       21  18  86 SW5       30.04R VSB 1   WCI  15
ROSEAU         FOG       23  19  86 S5        30.03S VSB 1/2 WCI  17
HALLOCK        FOG       25  23  93 S7        30.04R VSB 1/2 WCI  17
THF RVR FALLS  CLOUDY    25  23  93 CALM      30.03S
HALSTAD          N/A     26  25  94 S3          N/A
FOSSTON        CLOUDY    25  23  93 CALM      30.04R
BAUDETTE       CLOUDY    23  20  88 W3        30.02R
WASKISH        CLOUDY    27  25  93 CALM      30.04R
CROOKSTON      CLOUDY    27  27 100 S3        30.06S FOG
$$
  *****  WEATHER ACROSS CENTRAL AND WEST MINNESOTA  *****

CITY           SKY/WX    TMP DP  RH WIND       PRES   REMARKS
BEMIDJI        CLOUDY    24  24  96 W3        30.02S
PARK RAPIDS    CLOUDY    28  25  88 NW5       30.02R WCI  23
WADENA         CLOUDY    27  25  93 NW3       30.04R
DETROIT LAKES  CLOUDY    28  27  93 CALM      30.04S FOG
MOORHEAD       CLOUDY    28  28 100 CALM      30.06S
FERGUS FALLS   CLOUDY    27  27 100 CALM      30.07S
ELBOW LAKE     CLOUDY    27  26  98 NE3       30.04S
MORRIS MN      CLOUDY    28  28 100 N3        30.04S FOG
STAPLES        CLOUDY    28  25  86 CALM      30.04R
WHEATON        CLEAR     25  25 100 CALM      30.08R FOG
$$
  *****  WEATHER ELSEWHERE ACROSS MINNESOTA  *****

CITY           SKY/WX    TMP DP  RH WIND       PRES   REMARKS
DULUTH         CLOUDY    27  21  78 N6        30.01R WCI  20
INTRNTL FALLS  CLOUDY    24  20  84 NW5       30.02R WCI  18
ELY            CLOUDY    21  19  93 CALM      30.01R
CLOQUET        CLOUDY    27  21  80 NW6       30.03R WCI  20
BRAINERD       CLOUDY    30  25  81 N5        30.03R
HIBBING        CLOUDY    27  21  78 N5        30.01R WCI  22
ALEXANDRIA     CLOUDY    28  26  92 N6        30.03S WCI  22
SAINT CLOUD    CLOUDY    32  26  78 NW7       30.03R
MINNEAPOLIS    CLOUDY    34  26  72 N9        30.03R
$$

  *****  WEATHER ACROSS SOUTH DAKOTA  *****

CITY           SKY/WX    TMP DP  RH WIND       PRES   REMARKS
SIOUX FALLS    CLEAR     27  26  96 CALM      30.04F
BROOKINGS      NOT AVBL
WATERTOWN      CLEAR     25  24  96 CALM      30.02S
HURON          CLEAR     28  26  92 S3        30.02F
SISSETON         N/A     27  27 100 CALM      30.03S
ABERDEEN       CLEAR     30  27  88 E6        30.01F WCI  24
MITCHELL       CLEAR     30  28  92 CALM      30.05S
PIERRE         CLEAR     31  27  85 E6        29.97F
MOBRIDGE       PTCLDY    32  29  88 SE10      29.94F WCI  24
RAPID CITY     CLEAR     42  26  53 W3        29.96F
$$

  *****  SOME WEATHER IN NEARBY STATES *****

CITY           SKY/WX    TMP DP  RH WIND       PRES   REMARKS
GLASGOW MT     PTCLDY    34  30  85 E8        29.83S
GREAT FALLS MT PTCLDY    53  27  36 SW18      29.92F
CHEYENNE WY    CLEAR     39  21  48 W14       30.20F
SCOTTSBLUFF NE CLEAR     36  28  73 NW7       30.09F
OMAHA NE       CLEAR     33  31  92 N6        30.07R
DES MOINES IA  CLOUDY    37  31  78 NW8       30.04R
DAVENPORT IA   CLOUDY    34  30  85 NW9       29.97R
CHICAGO IL     CLOUDY    27  24  89 NE3       29.94R
EAU CLAIRE WI  CLOUDY    28  23  81 N6        30.02R WCI  22
LA CROSSE WI   CLOUDY    31  26  82 N5        30.01R
$$

  *****  SOME NATIONAL WEATHER *****

CITY           SKY/WX    TMP DP  RH WIND       PRES   REMARKS
LA GUARDIA NY  SNOW      21  19  93 N21       29.66F VSB 1/2 WCI   6
RALEIGH NC     LGT SNOW  34  30  85 NW7       29.72R FOG
ATLANTA GA     MOCLDY    32  27  81 W8        29.89F WCI  25
NEW ORLEANS LA CLEAR     49  39  68 SW8       30.10F
OKLAHOMA CITY  PTCLDY    48  34  58 NW7       30.08S
ALBUQUERQUE NM PTCLDY    37  26  64 SE3       30.34F
SALT LAKE CITY PTCLDY    34  31  88 E6        30.18F
LOS ANGELES CA MOCLDY    57  52  83 VRB3      30.11S
BOISE ID       FOG       31  30  96 CALM      30.14F VSB 1/4
SEATTLE WA     CLOUDY    51  47  86 CALM      29.99S
$$

*** WEATHER ACROSS MANITOBA...SASKATCHEWAN AND ONTARIO ***
                ***ONTARIO***

CITY           SKY/WX    TMP DP  RH WIND       PRES   REMARKS
GERALDTON      FLURRIES  12  10  92 SE6       30.05R WCI   3
THUNDER BAY    FLURRIES  21  21 100 VRB3      30.06R
SIOUX LOOKOUT  FLURRIES  19  19 100 NW5       29.99R WCI  13
TORONTO        FLURRIES  10   5  79 N12       30.00R WCI  -4
BIG TROUT LK   CLOUDY    12  10  92 SW7       29.90R WCI   2
PICKLE LAKE    NOT AVBL
DRYDEN         CLOUDY    19  19 100 W5        29.99R WCI  13
KENORA         LGT SNOW  21  19  93 SW8       30.00R FOG     WCI  12
$$
                *** MANITOBA***

CITY           SKY/WX    TMP DP  RH WIND       PRES   REMARKS
BRANDON        CLOUDY    18  16  93 N2        29.93F FOG
DAUPHIN        CLOUDY    30  27  86 W9        29.86F WCI  22
ISLAND LAKE    FLURRIES  16  14  93 SW8       29.88S WCI   5
PILOT MOUND      N/A     19  18  93 S5          N/A  WCI  13
THE PAS        CLEAR     16  16 100 S3        29.78S
THOMPSON       LGT SNOW  18  16  93 SW7       29.74S FOG     WCI   8
WINNIPEG       PTCLDY    19  16  86 S9        30.01S WCI   9
LYNN LAKE      CLOUDY    28  27  93 NW10G21   29.69R WCI  19
CHURCHILL      FLURRIES  10   9  92 W8        29.60F WCI  -1
GILLAM         FLURRIES  14  12  92 SW9       29.72F WCI   2
$$
                ***SASKATCHEWAN***

CITY           SKY/WX    TMP DP  RH WIND       PRES   REMARKS
ESTEVAN        CLEAR     28  27  93 SE8       29.84F WCI  20
KINDERSLEY     MOCLDY    28  27  93 NE8       29.74F WCI  20
LLOYDMINSTER   CLOUDY    34  32  93 N6        29.77F
PRINCE ALBERT  CLOUDY    25  25 100 CALM      29.79F
REGINA         MOCLDY    30  28  93 E8        29.80F WCI  23


USA.gov is the U.S. government's official web portal to all federal, state and local government web resources and services.